Location: Unspecified
(17.6330°N, 0.0000°E)
Time: 14:55:29
(UTC+00:00)

Tiros 1 despin weight - Pass Details

Date: 14 August 2020
Orbit: 593 x 642 km, 48.2° (Epoch: 23 September)

Event Time Altitude Azimuth Distance (km) Brightness Sun altitude
Exits shadow 04:21:21 23° 305° (NW) 1,345 ? -19.2°
Maximum altitude 04:21:56 23° 317° (NW) 1,323 ? -19.0°
Drops below altitude 10° 04:25:34 10° 10° (N) 1,976 ? -18.2°
Sets 04:28:15 0° 25° (NNE) 2,871 ? -17.6°
